North Pole, Alaska, United States (99705)
Lat: 64.75N, Lon: 147.35W
Wx Zone: AKZ222
Local Info
Past Weather Observations for Wednesday, January 21, 2015

NOTE: This archive is for the closest National Weather Service station to North Pole. Information may differ from the station used for current weather conditions.

Click here for Long-term Archive

Time Weather Temperature Dewpoint Humidity Pressure Winds Precip Visibility
23:56
Overcast
3°F / -16°C °F / -18°C 85% 29.47 in
(998 mb)
Calm - 10SM
23:34
Overcast
3°F / -16°C °F / -18°C 85% 29.47 in
(998 mb)
Calm - 10SM
22:56
Overcast
3°F / -16°C -2°F / -19°C 78% 29.47 in
(998 mb)
SSW 3.5 mph
(SSW 6 kph)
- 10SM
21:56
Overcast
3°F / -16°C -2°F / -19°C 78% 29.47 in
(998 mb)
Calm - 10SM
21:55
Overcast
Light Snow
3°F / -16°C -2°F / -19°C 78% 29.47 in
(998 mb)
Calm - 6SM
20:55
Overcast
Light Snow
3°F / -16°C -2°F / -19°C 78% 29.47 in
(998 mb)
Calm - 6SM
19:55
Mostly Cloudy
Light Snow
1°F / -17°C -2°F / -19°C 85% 29.47 in
(998 mb)
Calm - 6SM
18:55
Mostly Cloudy
Light Snow
1°F / -17°C -4°F / -20°C 78% 29.47 in
(998 mb)
Calm - 6SM
17:55
Mostly Cloudy
Light Snow
°F / -18°C -6°F / -21°C 78% 29.5 in
(999 mb)
Calm - 7SM
16:55
Mostly Cloudy
Light Snow
°F / -18°C -6°F / -21°C 78% 29.5 in
(999 mb)
Calm - 7SM
15:55
Mostly Cloudy
Light Snow
°F / -18°C -6°F / -21°C 78% 29.53 in
(1000 mb)
Calm - 7SM
14:55
Mostly Cloudy
Light Snow
-2°F / -19°C -8°F / -22°C 77% 29.53 in
(1000 mb)
Calm - 10SM
14:20
Mostly Cloudy
Light Snow
-4°F / -20°C -8°F / -22°C 84% 29.53 in
(1000 mb)
SSE 2.3 mph
(SSE 4 kph)
- 10SM
13:55
Mostly Cloudy
Light Snow
-6°F / -21°C -9°F / -23°C 84% 29.56 in
(1001 mb)
SSE 2.3 mph
(SSE 4 kph)
- 10SM
13:40
Mostly Cloudy
Light Snow
-4°F / -20°C -9°F / -23°C 77% 29.56 in
(1001 mb)
Calm - 10SM
12:55
Mostly Cloudy
-4°F / -20°C -8°F / -22°C 84% 29.56 in
(1001 mb)
Calm - 10SM
11:55
Overcast
-2°F / -19°C -9°F / -23°C 71% 29.56 in
(1001 mb)
WNW 2.3 mph
(WNW 4 kph)
- 10SM
11:20
Overcast
-4°F / -20°C -9°F / -23°C 77% 29.59 in
(1002 mb)
Calm - 10SM
10:55
Overcast
Light Snow
-6°F / -21°C -9°F / -23°C 84% 29.59 in
(1002 mb)
Calm - 10SM
10:16
Overcast
Light Snow
-8°F / -22°C -11°F / -24°C 84% 29.59 in
(1002 mb)
Calm - 10SM
09:55
Overcast
-9°F / -23°C -17°F / -27°C 70% 29.59 in
(1002 mb)
Calm - 10SM
09:19
Mostly Cloudy
-11°F / -24°C -15°F / -26°C 84% 29.56 in
(1001 mb)
Calm - 10SM
08:55
Mostly Cloudy
-9°F / -23°C -15°F / -26°C 77% 29.56 in
(1001 mb)
Calm - 10SM
07:55
Mostly Cloudy
Light Snow
-8°F / -22°C -11°F / -24°C 84% 29.56 in
(1001 mb)
Calm - 10SM
07:42
Mostly Cloudy
Light Snow
-8°F / -22°C -15°F / -26°C 70% 29.59 in
(1002 mb)
Calm - 10SM
06:55
Mostly Cloudy
-6°F / -21°C -9°F / -23°C 84% 29.59 in
(1002 mb)
Calm - 10SM
06:30
Mostly Cloudy
-6°F / -21°C -9°F / -23°C 84% 29.59 in
(1002 mb)
Calm - 10SM
05:56
Overcast
-6°F / -21°C -11°F / -24°C 77% 29.59 in
(1002 mb)
Calm - 10SM
05:54
Overcast
-6°F / -21°C -11°F / -24°C 77% 29.59 in
(1002 mb)
Calm - 10SM
04:56
Overcast
-8°F / -22°C -11°F / -24°C 84% 29.56 in
(1001 mb)
E 4.6 mph
(E 7 kph)
- 10SM
03:56
Mostly Cloudy
-4°F / -20°C -9°F / -23°C 77% 29.56 in
(1001 mb)
E 4.6 mph
(E 7 kph)
0.00 in
(0.00 mm)
9SM
02:56
Overcast
Light Snow
-2°F / -19°C -8°F / -22°C 77% 29.56 in
(1001 mb)
Calm 0.00 in
(0.00 mm)
5SM
01:56
Overcast
Hazy
-2°F / -19°C -8°F / -22°C 77% 29.56 in
(1001 mb)
Calm - 5SM
01:24
Overcast
Hazy
-4°F / -20°C -9°F / -23°C 77% 29.53 in
(1000 mb)
Calm - 6SM
00:56
Overcast
Hazy
-4°F / -20°C -9°F / -23°C 77% 29.53 in
(1000 mb)
Calm 0.00 in
(0.00 mm)
4SM
00:54
Overcast
Light Snow
-4°F / -20°C -9°F / -23°C 77% 29.53 in
(1000 mb)
Calm 0.00 in
(0.00 mm)
4SM
00:28
Overcast
Light Snow
-2°F / -19°C -9°F / -23°C 71% 29.53 in
(1000 mb)
SE 4.6 mph
(SE 7 kph)
0.00 in
(0.00 mm)
3SM
Time Weather Temperature Dewpoint Humidity Pressure Winds Precip Visibility


Weather for websites

WeatherForYou.com, LLC is not responsible for any damages or problems caused by this service. Current weather conditions are obtained from the closest station including government and personal stations which may have varying degrees of accuracy. Weather forecasts are derived from the NOAA NDFD. Like all things, this site belongs to Jesus Christ... He just trusts me to maintain it. If you have any questions or comments email webmaster@weatherforyou.com

Copyright © 2015, WeatherForYou.com LLC. All rights reserved.